| time (UTC) | temp F | wind direction | speed MPH | gust MPH | rain 1hr in | rain 24hr in | rain mn in | humidity % | barometer mb |
| 20260505005059 | 69 | 243 | 3.0 | 7.0 | 0.00 | 0.00 | 0.00 | 46 | 1013.3 |
| 20260505004559 | 70 | 231 | 3.0 | 7.0 | 0.00 | 0.00 | 0.00 | 46 | 1013.3 |
| 20260505004059 | 70 | 238 | 5.0 | 8.0 | 0.00 | 0.00 | 0.00 | 46 | 1013.3 |
| 20260505003559 | 70 | 224 | 3.0 | 8.0 | 0.00 | 0.00 | 0.00 | 45 | 1013.3 |
| 20260505003059 | 71 | 237 | 5.0 | 8.0 | 0.00 | 0.00 | 0.00 | 44 | 1013.3 |
| 20260505002559 | 71 | 236 | 5.0 | 10.0 | 0.00 | 0.00 | 0.00 | 44 | 1013.3 |
| 20260505002058 | 71 | 246 | 5.0 | 13.0 | 0.00 | 0.00 | 0.00 | 43 | 1013.3 |
| 20260505001558 | 72 | 232 | 7.0 | 13.0 | 0.00 | 0.00 | 0.00 | 43 | 1013.3 |
| 20260505001059 | 72 | 219 | 6.0 | 11.0 | 0.00 | 0.00 | 0.00 | 43 | 1013.3 |
| 20260505000559 | 72 | 227 | 4.0 | 15.0 | 0.00 | 0.00 | 0.00 | 42 | 1013.3 |
| 20260505000059 | 73 | 247 | 9.0 | 15.0 | 0.00 | 0.00 | 0.00 | 41 | 1013.3 |
| 20260504235559 | 73 | 247 | 5.0 | 15.0 | 0.00 | 0.00 | 0.00 | 41 | 1013.3 |
| 20260504235059 | 73 | 264 | 8.0 | 15.0 | 0.00 | 0.00 | 0.00 | 41 | 1013.3 |
| 20260504234559 | 73 | 262 | 7.0 | 18.0 | 0.00 | 0.00 | 0.00 | 41 | 1013.3 |
| 20260504234059 | 73 | 252 | 10.0 | 18.0 | 0.00 | 0.00 | 0.00 | 40 | 1013.3 |
| 20260504233559 | 73 | 246 | 15.0 | 18.0 | 0.00 | 0.00 | 0.00 | 40 | 1013.3 |
| 20260504233059 | 74 | 249 | 10.0 | 18.0 | 0.00 | 0.00 | 0.00 | 39 | 1013.3 |
| 20260504232559 | 74 | 239 | 13.0 | 15.0 | 0.00 | 0.00 | 0.00 | 40 | 1013.3 |
| 20260504232059 | 74 | 256 | 8.0 | 15.0 | 0.00 | 0.00 | 0.00 | 39 | 1013.3 |
| 20260504231559 | 74 | 249 | 11.0 | 13.0 | 0.00 | 0.00 | 0.00 | 39 | 1013.3 |
| 20260504231059 | 74 | 254 | 4.0 | 16.0 | 0.00 | 0.00 | 0.00 | 39 | 1013.3 |
| 20260504230559 | 74 | 233 | 10.0 | 16.0 | 0.00 | 0.00 | 0.00 | 38 | 1013.3 |
| 20260504230059 | 74 | 265 | 11.0 | 16.0 | 0.00 | 0.00 | 0.00 | 38 | 1013.3 |
| 20260504225559 | 74 | 262 | 10.0 | 16.0 | 0.00 | 0.00 | 0.00 | 37 | 1013.7 |
| 20260504225059 | 74 | 281 | 7.0 | 18.0 | 0.00 | 0.00 | 0.00 | 37 | 1013.7 |
| 20260504224559 | 74 | 265 | 11.0 | 18.0 | 0.00 | 0.00 | 0.00 | 37 | 1013.7 |
| 20260504224059 | 74 | 276 | 13.0 | 19.0 | 0.00 | 0.00 | 0.00 | 37 | 1013.7 |
| 20260504223559 | 75 | 255 | 13.0 | 19.0 | 0.00 | 0.00 | 0.00 | 36 | 1013.7 |
| 20260504223059 | 75 | 228 | 9.0 | 18.0 | 0.00 | 0.00 | 0.00 | 39 | 1013.7 |
| 20260504222559 | 75 | 227 | 10.0 | 18.0 | 0.00 | 0.00 | 0.00 | 38 | 1013.7 |
| 20260504221559 | 75 | 241 | 11.0 | 17.0 | 0.00 | 0.00 | 0.00 | 39 | 1013.7 |
| 20260504221059 | 74 | 241 | 10.0 | 20.0 | 0.00 | 0.00 | 0.00 | 39 | 1014.0 |
| 20260504220559 | 75 | 250 | 17.0 | 17.0 | 0.00 | 0.00 | 0.00 | 39 | 1014.0 |
| 20260504220059 | 75 | 271 | 9.0 | 21.0 | 0.00 | 0.00 | 0.00 | 37 | 1014.0 |
| 20260504215559 | 74 | 243 | 13.0 | 21.0 | 0.00 | 0.00 | 0.00 | 37 | 1013.7 |
| 20260504215059 | 75 | 246 | 14.0 | 20.0 | 0.00 | 0.00 | 0.00 | 38 | 1013.7 |
| 20260504214559 | 74 | 246 | 7.0 | 20.0 | 0.00 | 0.00 | 0.00 | 38 | 1014.0 |
| 20260504214058 | 74 | 252 | 9.0 | 21.0 | 0.00 | 0.00 | 0.00 | 39 | 1013.7 |
| 20260504213559 | 75 | 247 | 15.0 | 21.0 | 0.00 | 0.00 | 0.00 | 39 | 1014.0 |
| 20260504213058 | 75 | 215 | 11.0 | 20.0 | 0.00 | 0.00 | 0.00 | 39 | 1013.7 |
| 20260504212559 | 75 | 256 | 12.0 | 20.0 | 0.00 | 0.00 | 0.00 | 39 | 1014.0 |
| 20260504212059 | 75 | 272 | 11.0 | 22.0 | 0.00 | 0.00 | 0.00 | 39 | 1014.0 |
| 20260504211600 | 75 | 251 | 15.0 | 22.0 | 0.00 | 0.00 | 0.00 | 38 | 1014.0 |
| 20260504211059 | 75 | 235 | 18.0 | 22.0 | 0.00 | 0.00 | 0.00 | 39 | 1014.0 |
| 20260504210559 | 75 | 248 | 15.0 | 22.0 | 0.00 | 0.00 | 0.00 | 38 | 1014.4 |
| 20260504210059 | 75 | 244 | 12.0 | 22.0 | 0.00 | 0.00 | 0.00 | 37 | 1014.4 |
| 20260504205559 | 75 | 250 | 10.0 | 22.0 | 0.00 | 0.00 | 0.00 | 37 | 1014.4 |
| 20260504205059 | 76 | 249 | 12.0 | 20.0 | 0.00 | 0.00 | 0.00 | 36 | 1014.4 |
| 20260504204558 | 75 | 262 | 8.0 | 21.0 | 0.00 | 0.00 | 0.00 | 36 | 1014.4 |
| 20260504204058 | 75 | 203 | 14.0 | 21.0 | 0.00 | 0.00 | 0.00 | 37 | 1014.4 |
| 20260504203559 | 75 | 254 | 11.0 | 20.0 | 0.00 | 0.00 | 0.00 | 38 | 1014.4 |
| 20260504203059 | 75 | 264 | 11.0 | 20.0 | 0.00 | 0.00 | 0.00 | 38 | 1014.4 |
| 20260504202559 | 76 | 201 | 9.0 | 20.0 | 0.00 | 0.00 | 0.00 | 37 | 1014.4 |
| 20260504202058 | 75 | 267 | 8.0 | 20.0 | 0.00 | 0.00 | 0.00 | 36 | 1014.7 |
| 20260504201559 | 75 | 266 | 8.0 | 20.0 | 0.00 | 0.00 | 0.00 | 36 | 1014.7 |
| 20260504201059 | 75 | 243 | 15.0 | 20.0 | 0.00 | 0.00 | 0.00 | 37 | 1014.7 |
| 20260504200559 | 75 | 256 | 10.0 | 21.0 | 0.00 | 0.00 | 0.00 | 37 | 1014.7 |
| 20260504200059 | 75 | 253 | 12.0 | 21.0 | 0.00 | 0.00 | 0.00 | 36 | 1014.7 |
| 20260504195559 | 74 | 204 | 8.0 | 20.0 | 0.00 | 0.00 | 0.00 | 35 | 1015.1 |
| 20260504195059 | 75 | 235 | 18.0 | 19.0 | 0.00 | 0.00 | 0.00 | 37 | 1015.1 |
| 20260504194559 | 75 | 262 | 7.0 | 19.0 | 0.00 | 0.00 | 0.00 | 39 | 1014.7 |
| 20260504194059 | 74 | 291 | 6.0 | 16.0 | 0.00 | 0.00 | 0.00 | 40 | 1015.4 |
| 20260504193559 | 74 | 232 | 8.0 | 16.0 | 0.00 | 0.00 | 0.00 | 40 | 1014.7 |
| 20260504193059 | 74 | 236 | 9.0 | 18.0 | 0.00 | 0.00 | 0.00 | 39 | 1015.4 |
| 20260504192559 | 74 | 279 | 14.0 | 18.0 | 0.00 | 0.00 | 0.00 | 39 | 1015.4 |
| 20260504192059 | 74 | 234 | 12.0 | 17.0 | 0.00 | 0.00 | 0.00 | 36 | 1015.4 |
| 20260504191559 | 75 | 214 | 12.0 | 15.0 | 0.00 | 0.00 | 0.00 | 37 | 1015.4 |
| 20260504191059 | 73 | 256 | 8.0 | 18.0 | 0.00 | 0.00 | 0.00 | 43 | 1015.4 |
| 20260504190559 | 73 | 256 | 9.0 | 18.0 | 0.00 | 0.00 | 0.00 | 43 | 1015.4 |
| 20260504190059 | 74 | 211 | 6.0 | 17.0 | 0.00 | 0.00 | 0.00 | 43 | 1015.4 |
| 20260504185559 | 74 | 242 | 7.0 | 19.0 | 0.00 | 0.00 | 0.00 | 43 | 1015.4 |
| 20260504185059 | 73 | 263 | 10.0 | 19.0 | 0.00 | 0.00 | 0.00 | 44 | 1015.4 |
| 20260504184559 | 73 | 258 | 10.0 | 18.0 | 0.00 | 0.00 | 0.00 | 43 | 1015.8 |
| 20260504184059 | 73 | 236 | 4.0 | 16.0 | 0.00 | 0.00 | 0.00 | 44 | 1015.8 |
| 20260504183559 | 73 | 255 | 11.0 | 16.0 | 0.00 | 0.00 | 0.00 | 42 | 1015.4 |
| 20260504183059 | 73 | 235 | 9.0 | 16.0 | 0.00 | 0.00 | 0.00 | 43 | 1015.8 |
| 20260504182559 | 73 | 257 | 14.0 | 16.0 | 0.00 | 0.00 | 0.00 | 42 | 1015.8 |
| 20260504182058 | 72 | 278 | 8.0 | 19.0 | 0.00 | 0.00 | 0.00 | 43 | 1015.8 |
| 20260504181559 | 73 | 248 | 12.0 | 19.0 | 0.00 | 0.00 | 0.00 | 44 | 1016.1 |
| 20260504181059 | 73 | 308 | 8.0 | 16.0 | 0.00 | 0.00 | 0.00 | 43 | 1015.8 |
| 20260504180558 | 73 | 290 | 7.0 | 16.0 | 0.00 | 0.00 | 0.00 | 43 | 1016.1 |
| 20260504180059 | 73 | 284 | 8.0 | 19.0 | 0.00 | 0.00 | 0.00 | 42 | 1016.1 |
| 20260504175559 | 73 | 242 | 10.0 | 19.0 | 0.00 | 0.00 | 0.00 | 43 | 1016.1 |
| 20260504175059 | 73 | 237 | 5.0 | 15.0 | 0.00 | 0.00 | 0.00 | 44 | 1016.1 |
| 20260504174559 | 73 | 244 | 8.0 | 16.0 | 0.00 | 0.00 | 0.00 | 45 | 1016.5 |
| 20260504174059 | 72 | 287 | 8.0 | 16.0 | 0.00 | 0.00 | 0.00 | 45 | 1016.1 |
| 20260504173559 | 72 | 282 | 7.0 | 15.0 | 0.00 | 0.00 | 0.00 | 44 | 1016.5 |
| 20260504173059 | 72 | 231 | 11.0 | 13.0 | 0.00 | 0.00 | 0.00 | 44 | 1016.5 |
| 20260504172600 | 73 | 283 | 8.0 | 15.0 | 0.00 | 0.00 | 0.00 | 45 | 1016.8 |
| 20260504172059 | 72 | 320 | 10.0 | 16.0 | 0.00 | 0.00 | 0.00 | 45 | 1016.5 |
| 20260504171559 | 71 | 275 | 8.0 | 18.0 | 0.00 | 0.00 | 0.00 | 46 | 1016.5 |
| 20260504171059 | 72 | 272 | 13.0 | 18.0 | 0.00 | 0.00 | 0.00 | 46 | 1016.5 |
| 20260504170558 | 71 | 273 | 7.0 | 18.0 | 0.00 | 0.00 | 0.00 | 47 | 1016.8 |
| 20260504151059 | 67 | 272 | 14.0 | 19.0 | 0.00 | 0.00 | 0.00 | 51 | 1017.9 |
| 20260504150558 | 66 | 272 | 11.0 | 22.0 | 0.00 | 0.00 | 0.00 | 52 | 1017.9 |
| 20260504140842 | 62 | 268 | 5.0 | 15.0 | 0.00 | 0.00 | 0.00 | 59 | 1018.3 |
| 20260504140341 | 61 | 249 | 4.0 | 15.0 | 0.00 | 0.00 | 0.00 | 61 | 1017.9 |
| 20260504130800 | 55 | 224 | 7.0 | 11.0 | 0.00 | 0.00 | 0.00 | 69 | 1018.3 |
| 20260504130300 | 55 | 235 | 8.0 | 12.0 | 0.00 | 0.00 | 0.00 | 68 | 1017.9 |
| 20260504120301 | 52 | 249 | 4.0 | 7.0 | 0.00 | 0.00 | 0.00 | 70 | 1017.9 |
| 20260504110300 | 51 | 215 | 2.0 | 8.0 | 0.00 | 0.00 | 0.00 | 70 | 1017.6 |
| 20260504100300 | 51 | 205 | 4.0 | 6.0 | 0.00 | 0.00 | 0.00 | 70 | 1017.2 |
| 20260504081800 | 52 | 245 | 2.0 | 4.0 | 0.00 | 0.00 | 0.00 | 69 | 1017.2 |
| 20260504081300 | 52 | 229 | 1.0 | 7.0 | 0.00 | 0.00 | 0.00 | 68 | 1017.2 |
| 20260504080800 | 52 | 208 | 1.0 | 7.0 | 0.00 | 0.00 | 0.00 | 67 | 1017.2 |
| 20260504080300 | 53 | 170 | 2.0 | 5.0 | 0.00 | 0.00 | 0.00 | 67 | 1017.2 |
| 20260504070300 | 55 | 230 | 6.0 | 10.0 | 0.00 | 0.00 | 0.00 | 61 | 1017.9 |
| 20260504050300 | 54 | 207 | 3.0 | 7.0 | 0.00 | 0.00 | 0.00 | 66 | 1018.6 |
| 20260504045800 | 54 | 206 | 5.0 | 6.0 | 0.00 | 0.00 | 0.00 | 66 | 1018.6 |
| 20260504045300 | 54 | 203 | 5.0 | 6.0 | 0.00 | 0.00 | 0.00 | 66 | 1019.0 |
| 20260504044800 | 54 | 211 | 2.0 | 6.0 | 0.00 | 0.00 | 0.00 | 66 | 1019.0 |
| 20260504044300 | 54 | 193 | 4.0 | 5.0 | 0.00 | 0.00 | 0.00 | 66 | 1019.0 |
| 20260504043800 | 54 | 201 | 1.0 | 5.0 | 0.00 | 0.00 | 0.00 | 68 | 1019.0 |
| 20260504043300 | 54 | 209 | 2.0 | 5.0 | 0.00 | 0.00 | 0.00 | 67 | 1019.0 |
| 20260504042800 | 54 | 200 | 2.0 | 3.0 | 0.00 | 0.00 | 0.00 | 67 | 1019.0 |
| 20260504042300 | 55 | 206 | 2.0 | 3.0 | 0.00 | 0.00 | 0.00 | 66 | 1019.0 |
| 20260504041800 | 55 | 223 | 1.0 | 3.0 | 0.00 | 0.00 | 0.00 | 66 | 1019.0 |
| 20260504041300 | 55 | 195 | 2.0 | 3.0 | 0.00 | 0.00 | 0.00 | 65 | 1019.0 |
| 20260504040801 | 55 | 198 | 2.0 | 2.0 | 0.00 | 0.00 | 0.00 | 63 | 1019.0 |
| 20260504040300 | 56 | 217 | 1.0 | 2.0 | 0.00 | 0.00 | 0.00 | 63 | 1019.0 |
| 20260504035800 | 56 | 208 | 2.0 | 2.0 | 0.00 | 0.00 | 0.00 | 62 | 1019.3 |
| 20260504035300 | 56 | 207 | 0.0 | 2.0 | 0.00 | 0.00 | 0.00 | 63 | 1019.3 |
| 20260504034800 | 56 | 249 | 0.0 | 3.0 | 0.00 | 0.00 | 0.00 | 64 | 1019.3 |
| 20260504034300 | 56 | 287 | 0.0 | 5.0 | 0.00 | 0.00 | 0.00 | 64 | 1019.0 |
| 20260504033800 | 56 | 198 | 2.0 | 5.0 | 0.00 | 0.00 | 0.00 | 63 | 1019.0 |
| 20260504033300 | 56 | 211 | 3.0 | 5.0 | 0.00 | 0.00 | 0.00 | 63 | 1019.0 |
| 20260504032800 | 56 | 202 | 4.0 | 5.0 | 0.00 | 0.00 | 0.00 | 62 | 1019.0 |
| 20260504032300 | 57 | 201 | 2.0 | 3.0 | 0.00 | 0.00 | 0.00 | 62 | 1019.0 |
| 20260504031800 | 57 | 195 | 1.0 | 2.0 | 0.00 | 0.00 | 0.00 | 61 | 1019.3 |
| 20260504031300 | 57 | 216 | 2.0 | 2.0 | 0.00 | 0.00 | 0.00 | 60 | 1019.3 |
| 20260504030800 | 57 | 196 | 2.0 | 4.0 | 0.00 | 0.00 | 0.00 | 59 | 1019.3 |
| 20260504030300 | 57 | 269 | 0.0 | 4.0 | 0.00 | 0.00 | 0.00 | 59 | 1019.0 |
| 20260504025800 | 57 | 203 | 3.0 | 4.0 | 0.00 | 0.00 | 0.00 | 58 | 1019.3 |
| 20260504025300 | 57 | 202 | 2.0 | 3.0 | 0.00 | 0.00 | 0.00 | 58 | 1019.0 |
| 20260504024759 | 57 | 233 | 0.0 | 3.0 | 0.00 | 0.00 | 0.00 | 58 | 1019.0 |
| 20260504024301 | 57 | 188 | 2.0 | 4.0 | 0.00 | 0.00 | 0.00 | 58 | 1019.0 |
| 20260504023800 | 57 | 187 | 3.0 | 4.0 | 0.00 | 0.00 | 0.00 | 58 | 1019.0 |
| 20260504023300 | 58 | 189 | 3.0 | 4.0 | 0.00 | 0.00 | 0.00 | 57 | 1019.3 |
| 20260504022800 | 58 | 193 | 2.0 | 3.0 | 0.00 | 0.00 | 0.00 | 56 | 1019.3 |
| 20260504022300 | 58 | 185 | 1.0 | 3.0 | 0.00 | 0.00 | 0.00 | 56 | 1019.3 |
| 20260504021800 | 58 | 156 | 1.0 | 2.0 | 0.00 | 0.00 | 0.00 | 56 | 1019.0 |
| 20260504021300 | 58 | 222 | 1.0 | 2.0 | 0.00 | 0.00 | 0.00 | 56 | 1019.3 |
| 20260504020800 | 58 | 224 | 0.0 | 2.0 | 0.00 | 0.00 | 0.00 | 55 | 1019.0 |
| 20260504020300 | 58 | 224 | 0.0 | 3.0 | 0.00 | 0.00 | 0.00 | 55 | 1019.3 |
| 20260504015800 | 58 | 201 | 2.0 | 3.0 | 0.00 | 0.00 | 0.00 | 56 | 1019.0 |
| 20260504015300 | 58 | 38 | 0.0 | 2.0 | 0.00 | 0.00 | 0.00 | 57 | 1019.0 |
| 20260504014800 | 58 | 37 | 0.0 | 3.0 | 0.00 | 0.00 | 0.00 | 56 | 1018.6 |
| 20260504014300 | 58 | 196 | 1.0 | 3.0 | 0.00 | 0.00 | 0.00 | 55 | 1018.6 |
| 20260504013800 | 59 | 182 | 1.0 | 3.0 | 0.00 | 0.00 | 0.00 | 55 | 1018.6 |
| 20260504013300 | 59 | 237 | 2.0 | 3.0 | 0.00 | 0.00 | 0.00 | 55 | 1018.3 |
| 20260504012800 | 59 | 180 | 0.0 | 2.0 | 0.00 | 0.00 | 0.00 | 54 | 1018.6 |
| 20260504012300 | 60 | 204 | 2.0 | 2.0 | 0.00 | 0.00 | 0.00 | 54 | 1018.6 |
| 20260504011800 | 60 | 212 | 1.0 | 2.0 | 0.00 | 0.00 | 0.00 | 53 | 1018.6 |
| 20260504011300 | 61 | 60 | 0.0 | 3.0 | 0.00 | 0.00 | 0.00 | 53 | 1018.6 |
| 20260504010800 | 61 | 309 | 0.0 | 3.0 | 0.00 | 0.00 | 0.00 | 52 | 1018.6 |
| 20260504010300 | 62 | 262 | 2.0 | 3.0 | 0.00 | 0.00 | 0.00 | 49 | 1018.6 |
| 20260504005800 | 62 | 300 | 3.0 | 3.0 | 0.00 | 0.00 | 0.00 | 49 | 1018.6 |